Weather History for New York JFK, NY

Change the Weather History Date:

Wednesday, November 7, 2012

  Actual Average Record
Temperature  
Mean Temperature 37 °F 50 °F  
Max Temperature 41 °F 57 °F 66 °F (1975)
Min Temperature 32 °F 43 °F 25 °F (1962)
Degree Days  
Heating Degree Days 28 15  
Month to date heating degree days 147 98  
Since 1 July heating degree days 351 397  
Cooling Degree Days 0 0  
Month to date cooling degree days 0 0  
Year to date cooling degree days 1229 1005  
Moisture  
Dew Point 30 °F    
Average Humidity 73    
Maximum Humidity 92    
Minimum Humidity 54    
Precipitation  
Precipitation 0.97 in 0.10 in 2.93 in (1963)
Month to date precipitation 0.97 0.74  
Year to date precipitation 34.32 36.82  
Snow  
Snow 4.00 in 0.00 in - ()
Month to date snowfall 4.0 0.0  
Since 1 July snowfall 4.0 0.0  
Snow Depth 0.00 in    
Sea Level Pressure  
Sea Level Pressure 29.86 in    
Wind  
Wind Speed 22 mph (North)    
Max Wind Speed 33 mph    
Max Gust Speed 44 mph    
Visibility 4 miles    
Events Fog , Rain , Snow    
T = Trace of Precipitation, MM = Missing Value Source: NWS Daily Summary

Daily Weather History Graph

Daily Weather History Graph

Search for Another Location

Airport:

Trip Planner

Search our weather history database for the weather conditions in past years. The results will help you decide how hot, cold, wet, or windy it might be!

Date:

Astronomy

Nov. 07, 2012 Rise Set
Actual Time 6:32 AM EST 4:44 PM EST
Civil Twilight 6:03 AM EST 5:13 PM EST
Nautical Twilight 5:31 AM EST 5:45 PM EST
Astronomical Twilight 4:59 AM EST 6:17 PM EST
Moon No Moon Rise 12:53 PM EST (11/7)
Length of Visible Light 11h 09m
Length of Day
10h 11m
Last Quarter, 43% of the Moon is Illuminated
Nov 7
Last Quarter
Nov 13
New
Nov 20
First Quarter
Nov 28
Full
Dec 6
Last Quarter

Hourly Weather History & Observations

Time (EST) Temp. Windchill Dew Point Humidity Pressure Visibility Wind Dir Wind Speed Gust Speed Precip Events Conditions
12:51 AM 41.0 °F 33.1 °F 28.0 °F 60% 30.05 in 10.0 mi NE 15.0 mph - N/A   Overcast
1:51 AM 41.0 °F 33.1 °F 30.0 °F 65% 30.04 in 10.0 mi NE 15.0 mph - N/A   Overcast
2:51 AM 41.0 °F 32.8 °F 26.1 °F 55% 30.00 in 10.0 mi NNE 16.1 mph 21.9 mph N/A   Overcast
3:51 AM 39.0 °F 29.6 °F 28.0 °F 65% 29.99 in 10.0 mi NE 18.4 mph - N/A   Overcast
4:51 AM 39.9 °F 30.2 °F 28.9 °F 65% 29.96 in 10.0 mi NNE 20.7 mph 28.8 mph N/A   Overcast
5:51 AM 41.0 °F 31.9 °F 28.9 °F 62% 29.96 in 10.0 mi NE 19.6 mph 28.8 mph N/A   Overcast
6:51 AM 41.0 °F 31.4 °F 28.9 °F 62% 29.94 in 10.0 mi NNE 21.9 mph 32.2 mph N/A   Overcast
7:51 AM 41.0 °F 31.4 °F 28.9 °F 62% 29.95 in 10.0 mi NE 21.9 mph 31.1 mph N/A   Overcast
8:51 AM 41.0 °F 31.4 °F 28.0 °F 60% 29.92 in 10.0 mi NNE 21.9 mph 31.1 mph N/A   Overcast
9:51 AM 41.0 °F 30.0 °F 28.0 °F 60% 29.89 in 10.0 mi NNE 28.8 mph 33.4 mph N/A   Overcast
10:43 AM 37.4 °F 26.4 °F 32.0 °F 81% 29.89 in 6.0 mi NNE 23.0 mph 35.7 mph 0.01 in Rain , Snow Light Rain
10:51 AM 37.9 °F 26.3 °F 32.0 °F 79% 29.88 in 5.0 mi NNE 26.5 mph 33.4 mph 0.01 in Rain , Snow Light Rain
11:51 AM 37.0 °F 26.7 °F 34.0 °F 89% 29.84 in 7.0 mi North 19.6 mph 28.8 mph 0.06 in Rain , Snow Light Rain
12:14 PM 37.4 °F 27.2 °F 33.8 °F 87% 29.83 in 7.0 mi North 19.6 mph 31.1 mph 0.02 in Rain Light Rain
12:51 PM 37.0 °F 26.7 °F 34.0 °F 89% 29.83 in 7.0 mi NNE 19.6 mph 31.1 mph 0.03 in Rain Rain
1:28 PM 35.6 °F 25.2 °F 33.8 °F 93% 29.83 in 3.0 mi North 18.4 mph 27.6 mph 0.07 in Rain , Snow Rain
1:51 PM 35.1 °F 23.5 °F 32.0 °F 89% 29.82 in 3.0 mi North 21.9 mph 28.8 mph 0.10 in Rain , Snow Rain
2:07 PM 33.8 °F 22.5 °F 32.0 °F 93% 29.82 in 2.5 mi North 19.6 mph 31.1 mph 0.04 in Rain , Snow Rain
2:46 PM 33.8 °F 22.8 °F 30.2 °F 87% 29.83 in 0.8 mi North 18.4 mph 29.9 mph 0.12 in Snow Light Snow
2:51 PM 33.1 °F 21.2 °F 30.9 °F 92% 29.83 in 0.8 mi North 20.7 mph 26.5 mph 0.13 in Snow Light Snow
3:51 PM 33.1 °F 21.2 °F 30.9 °F 92% 29.82 in 0.8 mi North 20.7 mph - 0.16 in Snow Light Snow
4:51 PM 33.1 °F 21.2 °F 30.9 °F 92% 29.82 in 0.8 mi North 20.7 mph 27.6 mph 0.12 in Snow Light Snow
5:51 PM 32.0 °F 19.2 °F 30.9 °F 96% 29.82 in 0.5 mi North 23.0 mph 34.5 mph 0.11 in Fog , Snow Snow
6:34 PM 32.0 °F 18.4 °F 30.2 °F 93% 29.80 in 0.5 mi North 26.5 mph 36.8 mph 0.04 in Fog , Snow Snow
6:51 PM 32.0 °F 18.4 °F 30.9 °F 96% 29.80 in 0.5 mi North 26.5 mph 36.8 mph 0.06 in Fog , Snow Snow
7:42 PM 32.0 °F 18.4 °F 30.2 °F 93% 29.78 in 0.8 mi North 26.5 mph 34.5 mph 0.03 in Snow Light Snow
7:51 PM 32.0 °F 18.4 °F 30.9 °F 96% 29.78 in 0.8 mi North 26.5 mph 38.0 mph 0.04 in Snow Light Snow
8:46 PM 32.0 °F 19.2 °F 30.2 °F 93% 29.79 in 0.8 mi North 23.0 mph 32.2 mph 0.03 in Snow Light Snow
8:51 PM 32.0 °F 18.6 °F 30.9 °F 96% 29.79 in 0.8 mi North 25.3 mph 32.2 mph 0.03 in Snow Light Snow
9:09 PM 32.0 °F 19.5 °F 30.2 °F 93% 29.80 in 0.8 mi North 21.9 mph 34.5 mph 0.02 in Snow Light Snow
9:51 PM 32.0 °F 19.5 °F 30.9 °F 96% 29.79 in 0.5 mi North 21.9 mph 31.1 mph 0.06 in Snow Snow
10:51 PM 32.0 °F 18.9 °F 30.9 °F 96% 29.77 in 0.8 mi North 24.2 mph 35.7 mph 0.04 in Snow Light Snow
11:51 PM 32.0 °F 18.9 °F 30.9 °F 96% 29.76 in 1.0 mi North 24.2 mph 32.2 mph 0.02 in Snow Light Snow